Погода в Ключах

Россия / Томская область     56°24′13″N   85°01′30″E
темп.,
°C
ветер,
м/с
пор.,
м/с
влажн.,
%
обл.,
%
осадки,
мм/ч
давл.,
гПа
погр.,
м
20 июня, вс
вс2001:00+10зсз4796100 1.9 1002497
04:00+9з3793100 0.0 1004483
07:00+9зсз4685100 0.0 1005563
10:00+11зсз3571100 0.0 1005970
13:00+12з3464100 0.1 10061209
16:00+14зюз3454100 0.0 10061658
19:00+13ю255898 0.0 10071349
22:00+11ююз496993 0.1 1007509
21 июня, пн
пн2101:00+8ю398640 0.1 1009202
04:00+6ююв27965 0.0 1008165
07:00+9ююв36798 0.0 1008273
10:00+16ююв45515 0.0 10081094
13:00+18ююв464175 0.0 10072243
16:00+14ююз5973100 0.3 1008458
19:00+11юв1194100 1.0 100956
22:00+10вюв2697100 0.5 1009275
22 июня, вт
вт2201:00+10вюв249897 0.5 1008144
04:00+9вюв2396100 0.0 100784
07:00+11вюв239396 0.0 1007171
10:00+13в1282100 0.0 1007328
13:00+18ссз115367 0.1 10061054
16:00+14юв3486100 1.8 1006158
19:00+11зюз2498100 6.9 1007190
22:00+11зюз2499100 7.3 1006267
23 июня, ср
ср2301:00+11зсз5999100 11.3 1006487
04:00+10з4899100 3.6 1007558
07:00+9зюз4899100 6.4 1009440
10:00+9з3698100 2.1 1010410
13:00+10зсз3594100 4.6 1011430
16:00+12ссз358799 0.6 1012592
19:00+12сз357779 0.8 1013641
22:00+8с11905 0.0 101310
24 июня, чт
чт2401:00+6ю11946 0.0 101310
04:00+5ююз11945 0.0 101310
07:00+8ююз12855 0.0 1012133
10:00+14зюз22625 0.1 10121022
13:00+15з225985 0.6 10111318
16:00+15сз226770 1.5 10111105
19:00+15сз22629 1.9 10111001
22:00+10с22909 0.4 101220